TimeCST,TemperatureF,Dew PointF,Humidity,Sea Level PressureIn,VisibilityMPH,Wind Direction,Wind SpeedMPH,Gust SpeedMPH,PrecipitationIn,Events,Conditions,WindDirDegrees,DateUTC
12:53 AM,46.9,23.0,39,30.09,10.0,South,5.8,-,N/A,,Clear,170,2012-11-25 06:53:00
1:53 AM,48.0,23.0,37,30.06,10.0,South,6.9,-,N/A,,Clear,170,2012-11-25 07:53:00
2:53 AM,46.9,23.0,39,30.04,10.0,SSE,4.6,-,N/A,,Clear,160,2012-11-25 08:53:00
3:53 AM,45.0,23.0,42,30.04,10.0,SSE,6.9,-,N/A,,Clear,150,2012-11-25 09:53:00
4:53 AM,43.0,24.1,47,30.02,10.0,SSE,6.9,-,N/A,,Clear,150,2012-11-25 10:53:00
5:53 AM,43.0,25.0,49,30.01,10.0,SSE,6.9,-,N/A,,Clear,150,2012-11-25 11:53:00
6:53 AM,42.1,25.0,51,30.01,10.0,SSE,6.9,-,N/A,,Clear,150,2012-11-25 12:53:00
7:53 AM,45.0,26.1,48,30.01,10.0,SSE,6.9,-,N/A,,Clear,150,2012-11-25 13:53:00
8:53 AM,50.0,28.0,43,30.01,10.0,SSE,9.2,-,N/A,,Clear,150,2012-11-25 14:53:00
9:53 AM,60.1,30.9,33,30.01,10.0,South,6.9,-,N/A,,Clear,170,2012-11-25 15:53:00
10:53 AM,66.0,35.1,32,29.99,10.0,South,9.2,17.3,N/A,,Clear,190,2012-11-25 16:53:00
11:53 AM,69.1,37.0,31,29.95,10.0,South,8.1,21.9,N/A,,Clear,190,2012-11-25 17:53:00
12:53 PM,72.0,39.0,30,29.91,10.0,South,10.4,18.4,N/A,,Clear,190,2012-11-25 18:53:00
1:53 PM,75.0,41.0,29,29.87,10.0,Variable,6.9,20.7,N/A,,Clear,0,2012-11-25 19:53:00
2:53 PM,75.0,42.1,31,29.86,10.0,South,12.7,24.2,N/A,,Clear,180,2012-11-25 20:53:00
3:53 PM,75.0,45.0,34,29.85,10.0,SSE,13.8,24.2,N/A,,Clear,160,2012-11-25 21:53:00
4:53 PM,73.0,46.0,38,29.84,10.0,South,9.2,21.9,N/A,,Clear,170,2012-11-25 22:53:00
5:53 PM,70.0,46.9,44,29.84,10.0,South,8.1,16.1,N/A,,Clear,170,2012-11-25 23:53:00
6:53 PM,69.1,48.0,47,29.85,10.0,SSE,10.4,-,N/A,,Clear,160,2012-11-26 00:53:00
7:53 PM,68.0,48.0,49,29.85,10.0,South,11.5,21.9,N/A,,Clear,170,2012-11-26 01:53:00
8:53 PM,66.0,48.0,52,29.86,10.0,South,9.2,18.4,N/A,,Clear,170,2012-11-26 02:53:00
9:53 PM,64.9,50.0,58,29.87,10.0,South,9.2,18.4,N/A,,Clear,170,2012-11-26 03:53:00
10:53 PM,64.9,52.0,63,29.87,10.0,Variable,5.8,16.1,N/A,,Clear,0,2012-11-26 04:53:00
11:53 PM,63.0,53.1,70,29.88,10.0,South,9.2,16.1,N/A,,Clear,180,2012-11-26 05:53:00